#timestamp,LO_Frequency,Hit,StdDev 
1620979215.2,286046995.4,N
1620979235.1,286046996.2,N
1620979236.0,286046996.2,N
1620979255.8,286046995.7,Y
1620979275.6,286046998.8,P
1620979295.5,286046998.6,N
1620979315.3,286047000.1,N
1620979335.2,286047000.7,N
1620979355.9,286046998.5,N
1620979375.7,286047001.6,N
1620979395.6,286047001.7,N
1620979415.4,286047000.5,N
1620979435.2,286046999.9,N
1620979455.1,286047000.4,N
1620979456.0,286047000.4,N
1620979475.8,286047001.8,N
1620979495.7,286047002.6,N
1620979515.5,286047002.4,N
1620979535.3,286046998.1,N
1620979555.2,286047002.5,N
1620979575.0,286047001.6,N
1620979575.9,286047001.6,N
1620979595.7,286047001.9,N
1620979615.6,286047003.8,N
1620979635.4,286047000.0,N
1620979655.3,286046999.1,N
1620979675.1,286047001.0,N
1620979676.0,286047001.0,N
1620979695.8,286047003.5,N
1620979715.7,286047003.9,N
1620979735.5,286047002.5,N
1620979755.3,286047003.7,N
1620979775.2,286047003.1,N
1620979795.0,286047006.1,Y
1620979795.9,286047006.1,P
1620979815.8,286047007.4,N
1620979835.6,286047006.9,N
1620979855.4,286047004.7,N
1620979875.3,286047009.1,Y
1620979895.1,286047001.6,P
1620979915.9,286047000.7,N
1620979935.7,286046998.1,N
1620979955.5,286047000.3,N
1620979975.4,286046997.0,N
1620979995.2,286046997.2,N
1620980015.0,286046997.8,N
1620980015.9,286046997.8,N
1620980035.8,286046997.4,N
1620980055.6,286046996.3,N
1620980075.5,286046991.8,Y
1620980095.3,286046994.0,P
1620980115.1,286046994.7,N
1620980135.9,286046994.3,N
1620980155.7,286046991.8,Y
1620980175.6,286046999.3,P
1620980195.4,286046998.5,N
1620980215.2,286046999.9,N
1620980235.1,286047001.0,N
1620980236.0,286047001.0,N
1620980255.8,286046998.2,N
1620980275.6,286047000.0,N
1620980295.5,286047001.1,N
1620980315.3,286046998.5,N
1620980335.2,286046998.8,N
1620980355.9,286046999.2,N
1620980375.7,286046999.6,N
1620980395.6,286046998.7,N
1620980415.4,286046997.1,N
1620980435.2,286046999.6,N
1620980455.1,286046999.4,N
1620980456.0,286046999.4,N
1620980475.8,286046997.2,N
1620980495.7,286046997.9,N
1620980515.5,286046997.1,N
1620980535.3,286046996.6,N
1620980555.2,286046998.5,N
1620980575.0,286046999.1,N
1620980575.9,286046999.1,N
1620980595.7,286046998.4,N
1620980615.6,286047000.0,N
1620980635.4,286047001.4,N
1620980655.3,286047003.4,N
1620980675.1,286047006.2,Y
1620980676.0,286047006.2,P
1620980695.8,286047008.4,N
1620980715.7,286047008.9,N
1620980735.5,286047005.2,N
1620980755.3,286047004.1,N
1620980775.2,286047001.6,N
1620980795.0,286047000.1,N
1620980795.9,286047000.1,N
1620980815.8,286046998.5,N
1620980835.6,286046998.3,N
1620980855.4,286046998.7,N
1620980875.3,286046996.6,N
1620980895.1,286046998.0,N
1620980915.9,286046995.2,N
1620980935.7,286046998.0,N
1620980955.5,286046993.7,N
1620980975.4,286046994.1,N
1620980995.2,286046994.8,N
1620981015.0,286046992.3,N
1620981015.9,286046992.3,N
1620981035.8,286046993.2,N
1620981055.6,286046994.8,N
1620981075.5,286046991.9,N
1620981095.3,286046992.6,N
1620981115.1,286046994.7,N
1620981135.9,286046997.5,N
1620981155.7,286046999.4,N
1620981175.5,286046998.1,N
1620981195.4,286046999.9,N
1620981215.2,286047004.4,N
1620981235.1,286047004.1,N
1620981236.0,286047004.1,N
1620981255.8,286046999.9,N
1620981275.6,286047001.1,N
1620981295.5,286046996.5,N
1620981315.3,286046996.8,N
1620981335.2,286046997.7,N
1620981355.9,286046997.2,N
1620981375.7,286046999.6,N
1620981395.6,286046999.1,N
1620981415.4,286047002.5,N
1620981435.2,286047004.2,N
1620981455.1,286047004.6,N
1620981456.0,286047004.6,N
1620981475.8,286047003.2,N
1620981495.7,286047001.9,N
1620981515.5,286047002.2,N
1620981535.3,286047000.3,N
1620981555.2,286046999.3,N
1620981575.0,286046998.3,N
1620981575.9,286046998.3,N
1620981595.7,286047000.7,N
1620981615.6,286047000.7,N
1620981635.4,286046999.4,N
1620981655.3,286046996.5,N
1620981675.1,286046995.3,N
1620981695.8,286046997.6,N
1620981715.7,286046996.9,N
1620981735.5,286046996.8,N
1620981755.4,286046999.8,N
1620981775.2,286047002.1,N
1620981795.0,286046999.7,N
1620981795.9,286046999.7,N
1620981815.8,286046998.5,N
1620981835.6,286046998.8,N
1620981855.4,286046998.3,N
1620981875.3,286046996.7,N
1620981895.1,286047001.8,N
1620981915.9,286047002.5,N
1620981935.7,286046999.0,N
1620981955.5,286046997.8,N
1620981975.4,286046998.0,N
1620981995.2,286046996.6,N
1620982015.0,286046995.0,N
1620982015.9,286046995.0,N
1620982035.8,286046993.8,N
1620982055.6,286046994.3,N
1620982075.5,286046993.9,N
1620982095.3,286046995.6,N
1620982115.1,286046998.9,N
1620982135.9,286046999.4,N
1620982155.7,286046998.0,N
1620982175.6,286046995.5,N
1620982195.4,286046993.8,N
1620982215.2,286047000.6,N
1620982235.1,286047005.9,N
1620982236.0,286047005.9,N
1620982255.8,286047004.4,N
1620982275.6,286047001.6,N
1620982295.5,286047005.1,N
1620982315.3,286047005.4,N
1620982335.2,286047001.4,N
1620982355.9,286047005.3,N
1620982375.7,286047004.3,N
1620982395.6,286047002.3,N
1620982415.4,286047004.4,N
1620982435.2,286047001.9,N
1620982455.1,286047002.3,N
1620982456.0,286047002.3,N
1620982475.8,286047004.2,N
1620982495.7,286047003.0,N
1620982515.5,286047003.8,N
1620982535.3,286047000.4,N
1620982555.2,286046998.2,N
1620982575.0,286047000.9,N
1620982575.9,286047000.9,N
1620982595.8,286046998.8,N
1620982615.6,286046996.7,N
1620982635.4,286046996.5,N
1620982655.3,286046994.9,N
1620982675.1,286046995.4,N
1620982695.8,286046998.0,N
1620982715.7,286047011.9,Y
1620982735.5,286046997.7,P
1620982755.4,286046998.1,N
1620982775.2,286046998.5,N
1620982795.0,286046996.8,N
1620982795.9,286046996.8,N
